Tracking 27405 objects as of 1-Jun-2023
HD Live streaming from Space Station
objects crossing your sky now

STARLINK-5009

Track STARLINK-5009 now!
10-day predictions
STARLINK-5009 is classified as:


NORAD ID: 53928
Int'l Code: 2022-119AU
Perigee: 546.2 km
Apogee: 547.6 km
Inclination: 53.2 °
Period: 95.4 minutes
Semi major axis: 6917 km
RCS: Unknown
Launch date: September 24, 2022
Source: United States (US)
Launch site: AIR FORCE EASTERN TEST RANGE (AFETR)
Your satellite tracking list
Your tracking list is empty




NASA's NSSDC Master Catalog

Two Line Element Set (TLE):
1 53928U 22119AU  23152.05807689  .00000766  00000-0  66206-4 0  9991
2 53928  53.2153 169.8976 0000998  87.1175 272.9931 15.08837666 38676
Source of the keplerian elements: AFSPC